Location: Ernez
(36.4595°N, 29.8755°E)
Time: 08:43:30
(UTC+00:00)

MOS 1 Rocket - Pass Details

Date: 13 November 2025
Orbit: 610 x 813 km, 97.4° (Epoch: 05 December)

Event Time Altitude Azimuth Distance (km) Brightness Sun altitude
Rises 15:24:45 0° 142° (SE) 2,858 6.3 -6.8°
Reaches altitude 10° 15:27:06 10° 131° (SE) 1,959 5.3 -7.2°
Maximum altitude 15:30:45 29° 71° (ENE) 1,140 3.9 -7.9°
Drops below altitude 10° 15:34:29 10° 12° (NNE) 2,006 5.4 -8.7°
Sets 15:36:56 0° 1° (N) 2,941 6.4 -9.1°
